QPF
0.00 0.00 0.00 0.00 0.00 0.00 0.00 0.00 0.00 0.00 0.00 0.00 0.00 0.00 0.00 0.00 0.00 0.00 0.00 0.00 0.00 0.00 0.00 0.00 0.00 0.00 0.00 0.00 0.00 0.00 0.00 0.00 0.00 0.00 0.00 0.00 0.00 0.00 0.00 0.00 0.00 0.00 0.00 0.00 0.00
0.00 0.00 0.00 0.00 0.00 0.00 0.00 0.00 0.00 0.00 0.00 0.00 0.00 0.00 0.00 0.00 0.00 0.00 0.00 0.00 0.00 0.00 0.00 0.00 0.00 0.00 0.00 0.00 0.00 0.00 0.00 0.00 0.00 0.00 0.00 0.00 0.00 0.00 0.00 0.00 0.00 0.00 0.00 0.00 0.00
0.00 0.00 0.00 0.00 0.00 0.00 0.00 0.00 0.00 0.00 0.00 0.00 0.00 0.00 0.00 0.00 0.00 0.00 0.00 0.00 0.00 0.00 0.00 0.00 0.00 0.00 0.00 0.00 0.00 0.00 0.00 0.00 0.00 0.00 0.00 0.00 0.00 0.00 0.00 0.00 0.00 0.00 0.00 0.00 0.00
0.00 0.00 0.00 0.00 0.00 0.00 0.00 0.00 0.00 0.00 0.00 0.00 0.00 0.00 0.00 0.00 0.00 0.00 0.00 0.00 0.00 0.00 0.00 0.00 0.00 0.00 0.00 0.00 0.00 0.00 0.00 0.00 0.00 0.00 0.00 0.00 0.00 0.00 0.00 0.00 0.00 0.00 0.00 0.00 0.00
0.00 0.00 0.00 0.00 0.00 0.00 0.00 0.00 0.00 0.00 0.00 0.00 0.00 0.00 0.00 0.00 0.00 0.00 0.00 0.00 0.00 0.00 0.00 0.00 0.00 0.00 0.00 0.00 0.00 0.00 0.00 0.00 0.00 0.00 0.00 0.00 0.00 0.00 0.00 0.00 0.00 0.00 0.00 0.00 0.00
0.00 0.00 0.00 0.00 0.00 0.00 0.00 0.00 0.00 0.00 0.00 0.00 0.00 0.00 0.00 0.00 0.00 0.00 0.00 0.00 0.00 0.00 0.00 0.00 0.00 0.00 0.00 0.00 0.00 0.00 0.00 0.00 0.00 0.00 0.00 0.00 0.00 0.00 0.00 0.00 0.00 0.00 0.00 0.00 0.00
0.00 0.00 0.00 0.00 0.00 0.00 0.00 0.00 0.00 0.00 0.00 0.00 0.00 0.00 0.00 0.00 0.00 0.00 0.00 0.00 0.00 0.00 0.00 0.00 0.00 0.00 0.00 0.00 0.00 0.00 0.00 0.00 0.00 0.00 0.00 0.00 0.00 0.00 0.00 0.00 0.00 0.00 0.00 0.00 0.00
0.00 0.00 0.00 0.00 0.00 0.00 0.00 0.00 0.00 0.00 0.00 0.00 0.00 0.00 0.00 0.00 0.00 0.00 0.00 0.00 0.00 0.00 0.00 0.00 0.00 0.00 0.00 0.00 0.00 0.00 0.00 0.00 0.00 0.00 0.00 0.00 0.00 0.00 0.00 0.00 0.00 0.00 0.00 0.00 0.00
0.00 0.00 0.00 0.00 0.00 0.00 0.00 0.00 0.00 0.00 0.00 0.00 0.00 0.00 0.00 0.00 0.00 0.00 0.00 0.00 0.00 0.00 0.00 0.00 0.00 0.00 0.00 0.00 0.00 0.00 0.00 0.00 0.00 0.00 0.00 0.00 0.00 0.00 0.00 0.00 0.00 0.00 0.00 0.00 0.00
0.00 0.00 0.00 0.00 0.00 0.00 0.00 0.00 0.00 0.00 0.00 0.00 0.00 0.00 0.00 0.00 0.00 0.00 0.00 0.00 0.00 0.00 0.00 0.00 0.00 0.00 0.00 0.00 0.00 0.00 0.00 0.00 0.00 0.00 0.00 0.00 0.00 0.00 0.00 0.00 0.00 0.00 0.00 0.00 0.00
0.00 0.00 0.00 0.00 0.00 0.00 0.00 0.00 0.00 0.00 0.00 0.00 0.00 0.00 0.00 0.00 0.00 0.00 0.00 0.00 0.00 0.00 0.00 0.00 0.00 0.00 0.00 0.00 0.00 0.00 0.00 0.00 0.00 0.00 0.00 0.00 0.00 0.00 0.00 0.00 0.00 0.00 0.00 0.00 0.00
0.00 0.00 0.00 0.00 0.00 0.00 0.00 0.00 0.00 0.00 0.00 0.00 0.00 0.00 0.00 0.00 0.00 0.00 0.00 0.00 0.00 0.00 0.00 0.00 0.00 0.00 0.00 0.00 0.00 0.00 0.00 0.00 0.00 0.00 0.00 0.00 0.00 0.00 0.00 0.00 0.00 0.00 0.00 0.00 0.00
0.00 0.00 0.00 0.00 0.00 0.00 0.00 0.00 0.00 0.00 0.00 0.00 0.00 0.00 0.00 0.00 0.00 0.00 0.00 0.00 0.00 0.00 0.00 0.00 0.00 0.00 0.00 0.00 0.00 0.00 0.00 0.00 0.00 0.00 0.00 0.00 0.00 0.00 0.00 0.00 0.00 0.00 0.00 0.00 0.00
0.00 0.00 0.00 0.00 0.00 0.00 0.00 0.00 0.00 0.00 0.00 0.00 0.00 0.00 0.00 0.00 0.00 0.00 0.00 0.00 0.00 0.00 0.00 0.00 0.00 0.00 0.00 0.00 0.00 0.00 0.00 0.00 0.00 0.00 0.00 0.00 0.00 0.00 0.00 0.00 0.00 0.00 0.00 0.00 0.00
0.00 0.00 0.00 0.00 0.00 0.00 0.00 0.00 0.00 0.00 0.00 0.00 0.00 0.00 0.00 0.00 0.00 0.00 0.00 0.00 0.00 0.00 0.00 0.00 0.00 0.00 0.00 0.00 0.00 0.00 0.00 0.00 0.00 0.00 0.00 0.00 0.00 0.00 0.00 0.00 0.00 0.00 0.00 0.00 0.00
0.00 0.00 0.00 0.00 0.00 0.00 0.00 0.00 0.00 0.00 0.00 0.00 0.00 0.00 0.00 0.00 0.00 0.00 0.00 0.00 0.00 0.00 0.00 0.00 0.00 0.00 0.00 0.00 0.00 0.00 0.00 0.00 0.00 0.00 0.00 0.00 0.00 0.00 0.00 0.00 0.00 0.00 0.00 0.00 0.00
0.00 0.00 0.00 0.00 0.00 0.00 0.00 0.00 0.00 0.00 0.00 0.00 0.00 0.00 0.00 0.00 0.00 0.00 0.00 0.00 0.00 0.00 0.00 0.00 0.00 0.00 0.00 0.00 0.00 0.00 0.00 0.00 0.00 0.00 0.00 0.00 0.00 0.00 0.00 0.00 0.00 0.00 0.00 0.00 0.00
0.00 0.00 0.00 0.00 0.00 0.00 0.00 0.00 0.00 0.00 0.00 0.00 0.00 0.00 0.00 0.00 0.00 0.00 0.00 0.00 0.00 0.00 0.00 0.00 0.00 0.00 0.00 0.00 0.00 0.00 0.00 0.00 0.00 0.00 0.00 0.00 0.00 0.00 0.00 0.00 0.00 0.00 0.00 0.00 0.00
0.00 0.00 0.00 0.00 0.00 0.00 0.00 0.00 0.00 0.00 0.00 0.00 0.00 0.00 0.00 0.00 0.00 0.00 0.00 0.00 0.00 0.00 0.00 0.00 0.00 0.00 0.00 0.00 0.00 0.00 0.00 0.00 0.00 0.00 0.00 0.00 0.00 0.00 0.00 0.00 0.00 0.00 0.00 0.00 0.00
0.00 0.00 0.00 0.00 0.00 0.00 0.00 0.00 0.00 0.00 0.00 0.00 0.00 0.00 0.00 0.00 0.00 0.00 0.00 0.00 0.00 0.00 0.00 0.00 0.00 0.00 0.00 0.00 0.00 0.00 0.00 0.00 0.00 0.00 0.00 0.00 0.00 0.00 0.00 0.00 0.00 0.00 0.00 0.00 0.00
0.00 0.00 0.00 0.00 0.00 0.00 0.00 0.00 0.00 0.00 0.00 0.00 0.00 0.00 0.00 0.00 0.00 0.00 0.00 0.00 0.00 0.00 0.00 0.00 0.00 0.00 0.00 0.00 0.00 0.00 0.00 0.00 0.00 0.00 0.00 0.00 0.00 0.00 0.00 0.00 0.00 0.00 0.00 0.00 0.00
0.00 0.00 0.00 0.00 0.00 0.00 0.00 0.00 0.00 0.00 0.00 0.00 0.00 0.00 0.00 0.00 0.00 0.00 0.00 0.00 0.00 0.00 0.00 0.00 0.00 0.00 0.00 0.00 0.00 0.00 0.00 0.00 0.00 0.00 0.00 0.00 0.00 0.00 0.00 0.00 0.00 0.00 0.00 0.00 0.00
0.00 0.00 0.00 0.00 0.00 0.00 0.00 0.00 0.00 0.00 0.00 0.00 0.00 0.00 0.00 0.00 0.00 0.00 0.00 0.00 0.00 0.00 0.00 0.00 0.00 0.00 0.00 0.00 0.00 0.00 0.00 0.00 0.00 0.00 0.00 0.00 0.00 0.00 0.00 0.00 0.00 0.00 0.00 0.00 0.00
0.00 0.00 0.00 0.00 0.00 0.00 0.00 0.00 0.00 0.00 0.00 0.00 0.00 0.00 0.00 0.00 0.00 0.00 0.00 0.00 0.00 0.00 0.00 0.00 0.00 0.00 0.00 0.00 0.00 0.00 0.00 0.00 0.00 0.00 0.00 0.00 0.00 0.00 0.00 0.00 0.00 0.00 0.00 0.00 0.00
0.00 0.00 0.00 0.00 0.00 0.00 0.00 0.00 0.00 0.00 0.00 0.00 0.00 0.00 0.00 0.00 0.00 0.00 0.00 0.00 0.00 0.00 0.00 0.00 0.00 0.00 0.00 0.00 0.00 0.00 0.00 0.00 0.00 0.00 0.00 0.00 0.00 0.00 0.00 0.00 0.00 0.00 0.00 0.00 0.00
0.00 0.00 0.00 0.00 0.00 0.00 0.00 0.00 0.00 0.00 0.00 0.00 0.00 0.00 0.00 0.00 0.00 0.00 0.00 0.00 0.00 0.00 0.00 0.00 0.00 0.00 0.00 0.00 0.00 0.00 0.00 0.00 0.00 0.00 0.00 0.00 0.00 0.00 0.00 0.00 0.00 0.00 0.00 0.00 0.01
0.00 0.00 0.00 0.00 0.00 0.00 0.00 0.00 0.00 0.00 0.00 0.00 0.00 0.00 0.00 0.00 0.00 0.00 0.00 0.00 0.00 0.00 0.00 0.00 0.00 0.00 0.00 0.00 0.00 0.00 0.00 0.00 0.01 0.00 0.00 0.01 0.00 0.01 0.02 0.01 0.01 0.00 0.00 0.00 0.00
MSLP
1015.76 1015.54 1015.33 1015.17 1015.02 1014.83 1014.75 1014.74 1014.59 1014.47 1014.40 1014.28 1014.33 1014.25 1014.21 1014.20 1013.86 1013.71 1012.26 1010.15 1010.17 1010.11 1010.50 1010.20 1009.94 1009.82 1009.61 1009.38 1009.44 1009.38 1008.64 1008.09 1007.89 1007.70 1007.26 1007.77 1007.91 1008.52 1008.87 1008.63 1009.04 1009.29 1009.68 1010.48 1011.53
1015.54 1015.32 1015.11 1014.99 1014.84 1014.71 1014.64 1014.46 1014.36 1014.28 1014.11 1014.03 1014.06 1014.02 1014.08 1013.99 1013.69 1012.20 1009.85 1009.88 1010.05 1010.17 1010.15 1009.95 1009.68 1009.57 1009.32 1009.23 1009.14 1008.70 1008.32 1007.90 1007.94 1007.75 1007.43 1007.65 1007.88 1008.02 1008.37 1008.36 1008.61 1009.18 1010.23 1010.97 1011.67
1015.35 1015.07 1014.84 1014.64 1014.51 1014.34 1014.28 1014.22 1014.17 1014.07 1013.94 1013.93 1013.94 1014.04 1014.06 1014.01 1012.92 1009.96 1009.38 1009.73 1010.08 1010.20 1010.01 1009.88 1009.76 1009.50 1009.16 1009.18 1009.00 1008.80 1007.96 1007.94 1007.75 1007.80 1007.78 1007.78 1007.80 1007.87 1007.57 1007.52 1007.57 1008.00 1009.43 1010.70 1011.35
1015.20 1014.85 1014.63 1014.48 1014.31 1014.19 1014.13 1014.08 1014.04 1013.88 1013.76 1013.75 1013.82 1013.88 1013.88 1013.58 1011.66 1009.50 1009.32 1009.25 1009.84 1010.04 1009.83 1009.76 1009.73 1009.46 1009.09 1008.85 1008.96 1008.65 1008.18 1008.01 1007.82 1007.83 1007.84 1007.53 1007.51 1007.28 1007.18 1006.91 1007.31 1007.68 1008.60 1010.10 1010.72
1015.15 1014.81 1014.51 1014.22 1014.10 1014.03 1013.93 1013.91 1013.86 1013.78 1013.71 1013.75 1013.72 1013.70 1013.70 1012.50 1010.36 1009.36 1009.38 1009.42 1010.00 1010.12 1009.68 1009.63 1009.60 1009.48 1009.01 1009.00 1009.08 1008.68 1008.16 1008.05 1007.85 1007.83 1007.66 1007.62 1007.32 1007.18 1006.51 1006.92 1007.18 1007.88 1008.56 1009.36 1010.23
1015.06 1014.68 1014.33 1014.02 1013.90 1013.76 1013.68 1013.68 1013.65 1013.64 1013.62 1013.59 1013.53 1013.67 1013.04 1011.49 1009.48 1009.46 1009.58 1009.77 1009.66 1009.76 1009.83 1009.70 1009.56 1009.52 1009.20 1009.09 1008.96 1008.67 1008.40 1008.04 1007.69 1007.53 1007.50 1007.29 1007.28 1007.26 1005.47 1006.40 1006.96 1007.66 1008.39 1008.86 1009.50
1014.96 1014.54 1014.10 1013.85 1013.67 1013.55 1013.44 1013.41 1013.44 1013.46 1013.50 1013.49 1013.52 1013.42 1012.49 1010.33 1009.47 1009.56 1009.65 1009.63 1009.75 1009.59 1009.69 1009.85 1009.74 1009.64 1009.42 1009.21 1009.31 1008.94 1008.51 1008.12 1007.57 1007.28 1007.09 1007.14 1006.92 1006.32 1005.76 1006.28 1006.50 1007.09 1007.88 1008.58 1009.15
1014.78 1014.38 1014.06 1013.60 1013.39 1013.29 1013.25 1013.32 1013.37 1013.42 1013.49 1013.51 1013.52 1013.21 1011.14 1009.50 1009.56 1009.57 1009.56 1009.68 1009.85 1009.87 1009.75 1009.84 1009.85 1009.69 1009.56 1009.60 1009.40 1008.89 1008.74 1007.76 1007.29 1007.32 1007.09 1007.05 1005.86 1005.49 1005.97 1006.35 1006.48 1006.86 1007.45 1007.92 1008.35
1014.60 1014.28 1013.93 1013.47 1013.21 1013.11 1013.04 1013.13 1013.18 1013.30 1013.37 1013.44 1013.44 1012.50 1010.16 1009.34 1009.26 1008.84 1008.98 1009.10 1009.62 1009.87 1009.89 1009.84 1009.76 1009.92 1009.84 1009.35 1009.17 1009.14 1008.30 1008.13 1007.55 1007.54 1007.19 1006.84 1005.72 1005.35 1005.70 1006.02 1006.29 1006.58 1006.70 1007.05 1007.43
1014.45 1014.04 1013.74 1013.35 1013.08 1013.04 1013.06 1013.11 1013.19 1013.24 1013.41 1013.37 1012.83 1012.18 1009.70 1008.84 1008.42 1008.72 1009.00 1008.92 1009.02 1009.52 1009.67 1009.80 1009.90 1009.89 1009.88 1009.40 1008.79 1008.82 1008.67 1008.50 1008.00 1007.84 1007.50 1007.00 1006.21 1005.62 1005.73 1005.89 1005.73 1006.08 1006.17 1006.21 1006.32
1014.41 1014.03 1013.64 1013.30 1013.16 1013.17 1012.98 1013.24 1013.18 1012.90 1012.50 1011.19 1010.69 1010.13 1009.13 1008.38 1008.22 1008.46 1008.72 1008.68 1008.78 1009.10 1009.27 1009.81 1009.57 1009.40 1009.48 1009.59 1009.55 1009.41 1009.09 1008.60 1008.34 1008.10 1007.97 1006.82 1006.29 1005.71 1005.50 1005.77 1005.24 1005.20 1005.46 1005.54 1005.36
1014.27 1013.94 1013.61 1013.30 1013.19 1013.31 1013.11 1011.98 1011.56 1011.39 1010.83 1009.90 1009.79 1009.61 1009.08 1008.68 1008.33 1008.34 1008.53 1008.60 1008.77 1008.90 1009.40 1009.73 1009.32 1009.33 1009.60 1009.76 1009.69 1009.56 1009.13 1008.52 1008.44 1008.12 1007.91 1006.62 1005.88 1005.32 1004.88 1004.72 1004.61 1004.40 1004.60 1004.83 1004.65
1014.12 1013.76 1013.45 1013.28 1013.30 1013.33 1012.45 1011.45 1011.13 1011.07 1010.61 1009.33 1009.12 1008.86 1008.57 1008.65 1008.46 1008.22 1008.42 1008.50 1008.68 1009.00 1009.18 1009.23 1009.24 1009.41 1009.41 1009.50 1009.45 1009.19 1008.85 1008.65 1008.39 1008.08 1007.62 1006.84 1005.46 1004.73 1004.45 1004.51 1004.44 1004.35 1004.14 1004.48 1004.58
1013.76 1013.41 1013.24 1013.17 1013.69 1012.37 1011.79 1011.22 1010.97 1010.83 1010.16 1009.28 1008.58 1008.44 1008.60 1008.53 1008.81 1008.86 1009.05 1008.70 1008.97 1009.08 1009.44 1009.40 1009.07 1009.17 1009.22 1009.10 1009.09 1008.54 1008.28 1008.21 1008.14 1008.09 1007.04 1006.88 1004.92 1004.33 1004.01 1003.93 1003.85 1003.52 1003.60 1003.78 1004.30
1013.30 1013.03 1012.92 1013.07 1012.36 1011.86 1011.58 1011.07 1010.73 1010.55 1009.92 1009.28 1008.38 1008.16 1008.60 1008.99 1009.66 1010.45 1010.97 1009.61 1010.28 1010.08 1009.99 1009.32 1009.14 1009.10 1008.83 1008.53 1008.74 1008.07 1008.14 1008.06 1007.84 1007.61 1007.34 1006.48 1005.75 1003.64 1003.86 1003.08 1002.68 1002.70 1002.92 1003.19 1003.76
1012.88 1012.65 1012.76 1012.95 1012.37 1011.21 1011.01 1010.81 1010.63 1010.70 1010.56 1009.94 1009.34 1009.30 1009.43 1010.49 1011.34 1011.56 1011.92 1011.81 1012.58 1011.43 1010.77 1010.36 1009.84 1009.36 1008.66 1008.64 1008.46 1008.18 1008.06 1008.01 1007.99 1007.42 1006.12 1005.40 1005.05 1003.02 1002.76 1002.24 1001.88 1001.92 1001.93 1002.25 1002.86
1012.44 1012.27 1012.51 1011.83 1011.77 1011.01 1011.04 1010.80 1011.15 1011.69 1012.13 1012.34 1011.83 1011.74 1011.76 1012.60 1013.39 1014.02 1015.21 1015.66 1015.60 1014.08 1013.08 1012.04 1010.57 1010.19 1010.17 1009.14 1008.48 1008.62 1008.53 1007.78 1006.97 1006.37 1004.71 1004.73 1004.26 1002.97 1002.45 1001.97 1001.88 1001.54 1001.66 1002.11 1002.64
1012.27 1012.16 1012.15 1011.72 1011.51 1011.11 1010.69 1011.22 1012.51 1014.28 1014.40 1014.33 1013.89 1013.56 1013.82 1014.68 1015.54 1016.46 1016.92 1017.74 1018.14 1017.58 1016.20 1014.89 1012.53 1012.35 1012.50 1011.76 1010.64 1009.62 1009.24 1008.19 1006.86 1006.11 1004.98 1005.26 1003.34 1002.38 1002.50 1002.19 1002.21 1002.16 1002.02 1002.32 1002.56
1012.36 1012.04 1011.87 1011.63 1011.25 1010.90 1011.12 1013.18 1015.65 1016.30 1016.50 1016.00 1015.30 1015.14 1015.82 1016.20 1016.50 1017.81 1019.37 1020.02 1020.40 1019.89 1019.10 1017.86 1015.60 1014.51 1013.80 1013.15 1012.46 1010.76 1010.24 1010.06 1008.51 1007.32 1006.38 1004.97 1003.62 1003.58 1003.24 1002.96 1002.89 1003.25 1003.04 1002.98 1002.57
1012.11 1012.11 1012.36 1011.91 1011.47 1011.17 1012.72 1015.91 1017.22 1017.77 1017.56 1017.13 1016.98 1017.39 1017.54 1017.94 1017.96 1018.84 1020.58 1021.85 1021.66 1021.48 1020.93 1020.51 1018.78 1016.79 1015.32 1013.92 1013.30 1013.50 1013.04 1011.42 1010.18 1008.76 1007.15 1005.33 1005.01 1004.49 1004.83 1005.55 1005.60 1005.41 1005.25 1004.84 1004.26
1012.16 1012.34 1012.65 1012.14 1011.77 1012.85 1015.34 1017.26 1018.20 1018.54 1018.36 1018.37 1018.62 1018.86 1019.47 1019.70 1019.84 1020.69 1021.82 1022.75 1022.62 1022.25 1021.93 1021.68 1020.94 1018.46 1017.04 1016.17 1016.36 1015.06 1014.68 1014.81 1013.96 1012.10 1009.99 1007.68 1006.31 1007.58 1007.78 1008.00 1007.68 1007.28 1006.92 1006.18 1005.08
1012.88 1013.30 1013.30 1012.42 1014.00 1016.54 1017.52 1018.37 1018.95 1019.38 1019.34 1019.60 1019.96 1020.35 1020.74 1021.01 1021.30 1021.88 1022.44 1022.82 1023.22 1023.00 1022.59 1022.62 1022.15 1020.43 1019.21 1018.62 1018.21 1017.86 1018.18 1017.80 1016.74 1014.80 1013.83 1011.86 1008.31 1008.60 1008.70 1009.24 1009.18 1008.49 1007.55 1006.97 1006.48
1014.44 1015.16 1014.13 1013.49 1016.32 1018.02 1019.07 1019.64 1020.18 1020.25 1020.68 1020.76 1021.25 1021.50 1021.86 1022.16 1022.54 1022.95 1023.19 1023.47 1023.57 1023.47 1023.37 1023.25 1022.86 1021.30 1019.75 1019.74 1019.49 1019.81 1019.92 1019.92 1019.63 1018.28 1015.48 1013.70 1008.74 1009.05 1009.08 1009.29 1009.89 1009.51 1009.04 1008.33 1007.59
1015.49 1016.66 1016.80 1016.74 1018.50 1018.75 1019.62 1020.65 1021.16 1021.82 1022.03 1022.20 1022.47 1022.39 1022.64 1022.96 1023.16 1023.50 1023.74 1023.95 1024.08 1023.96 1024.01 1023.89 1023.67 1023.24 1022.71 1022.34 1022.00 1021.46 1020.92 1020.66 1020.62 1019.29 1016.91 1013.68 1012.26 1012.18 1011.26 1010.96 1009.72 1010.17 1010.10 1009.40 1008.34
1016.90 1019.48 1020.19 1020.19 1020.50 1020.24 1020.44 1021.58 1021.96 1022.52 1023.07 1023.33 1023.50 1023.54 1023.46 1023.50 1023.72 1023.97 1024.30 1024.38 1024.41 1024.63 1024.62 1024.48 1024.16 1024.10 1023.19 1022.63 1022.35 1021.98 1021.46 1021.06 1020.51 1019.98 1018.93 1015.12 1015.31 1015.03 1014.46 1013.54 1012.26 1011.54 1011.08 1010.35 1009.18
1018.30 1019.58 1020.77 1021.32 1021.47 1021.32 1021.74 1022.90 1023.02 1023.60 1023.86 1024.22 1024.26 1024.39 1024.29 1024.26 1024.64 1024.74 1025.10 1025.14 1025.12 1025.08 1025.07 1025.28 1024.56 1024.36 1023.10 1022.38 1022.18 1021.76 1021.35 1021.13 1020.91 1020.30 1019.14 1017.55 1015.79 1015.83 1015.74 1015.20 1014.01 1013.04 1012.18 1011.36 1010.38
1019.70 1020.08 1020.02 1022.14 1022.30 1022.11 1023.22 1023.64 1023.95 1024.26 1024.99 1024.99 1024.96 1024.92 1024.89 1025.12 1025.38 1025.50 1025.71 1025.82 1025.84 1025.81 1025.45 1025.34 1025.06 1024.48 1023.03 1022.76 1021.91 1021.58 1021.98 1021.84 1021.72 1021.36 1020.66 1018.88 1016.68 1017.24 1016.40 1016.01 1015.44 1014.62 1013.30 1012.29 1011.37
Thickness
5720 5723 5727 5729 5732 5734 5736 5738 5740 5741 5743 5745 5746 5748 5749 5750 5753 5756 5764 5785 5787 5790 5788 5790 5790 5789 5791 5784 5786 5786 5772 5764 5771 5777 5792 5805 5800 5803 5809 5806 5806 5809 5807 5806 5804
5720 5723 5726 5728 5731 5733 5735 5737 5739 5741 5743 5745 5746 5748 5748 5749 5752 5761 5786 5787 5786 5787 5785 5781 5778 5782 5778 5777 5779 5779 5769 5771 5784 5791 5795 5800 5798 5803 5800 5801 5804 5805 5804 5804 5801
5719 5722 5725 5728 5730 5733 5735 5736 5738 5740 5742 5744 5745 5745 5745 5747 5756 5776 5787 5785 5784 5785 5785 5784 5781 5778 5772 5774 5773 5771 5772 5781 5786 5794 5797 5793 5794 5804 5803 5799 5812 5810 5804 5801 5799
5717 5720 5723 5726 5729 5731 5733 5735 5736 5738 5741 5742 5743 5743 5744 5749 5751 5781 5786 5787 5783 5783 5783 5778 5773 5767 5766 5765 5771 5765 5779 5781 5785 5792 5792 5792 5801 5802 5806 5813 5821 5821 5816 5805 5799
5714 5718 5721 5725 5727 5729 5731 5733 5734 5736 5738 5739 5741 5742 5744 5750 5762 5781 5782 5783 5780 5778 5776 5772 5766 5763 5761 5764 5764 5764 5775 5778 5785 5788 5792 5794 5795 5798 5808 5818 5822 5819 5813 5807 5802
5712 5716 5720 5724 5727 5729 5730 5732 5733 5734 5735 5736 5738 5739 5745 5743 5776 5777 5778 5778 5778 5776 5771 5772 5768 5769 5764 5763 5762 5770 5769 5774 5782 5788 5788 5789 5790 5793 5822 5821 5817 5814 5811 5810 5806
5710 5715 5719 5723 5726 5728 5729 5731 5732 5732 5733 5734 5734 5736 5740 5755 5772 5773 5774 5773 5774 5774 5767 5770 5771 5765 5765 5758 5765 5763 5758 5767 5778 5785 5786 5789 5779 5788 5816 5815 5813 5811 5811 5809 5806
5710 5714 5717 5722 5725 5727 5728 5728 5729 5729 5729 5730 5730 5733 5741 5766 5768 5768 5771 5768 5770 5771 5770 5772 5771 5764 5760 5762 5757 5755 5755 5751 5779 5777 5783 5782 5773 5801 5808 5801 5802 5807 5806 5807 5808
5709 5712 5716 5720 5723 5725 5727 5727 5727 5726 5726 5726 5728 5733 5741 5763 5760 5769 5771 5764 5763 5764 5766 5769 5765 5752 5753 5747 5743 5743 5742 5741 5760 5772 5773 5772 5772 5798 5802 5798 5795 5800 5806 5808 5811
5708 5712 5715 5719 5722 5723 5723 5723 5722 5722 5721 5722 5726 5727 5749 5750 5762 5762 5765 5764 5759 5755 5753 5752 5747 5741 5738 5739 5727 5732 5733 5736 5745 5760 5761 5757 5763 5786 5791 5790 5796 5797 5803 5807 5812
5706 5710 5713 5717 5718 5719 5720 5719 5723 5721 5722 5736 5737 5736 5745 5757 5763 5756 5760 5757 5756 5748 5736 5738 5735 5729 5733 5734 5734 5731 5730 5732 5744 5756 5743 5754 5757 5773 5786 5780 5791 5797 5799 5804 5812
5705 5708 5711 5714 5716 5716 5718 5726 5728 5728 5723 5736 5735 5736 5743 5749 5740 5748 5756 5741 5737 5728 5731 5728 5723 5734 5730 5726 5725 5724 5724 5734 5740 5744 5737 5753 5751 5771 5781 5784 5791 5800 5799 5802 5813
5704 5707 5710 5712 5713 5713 5720 5726 5729 5728 5719 5732 5736 5736 5739 5742 5733 5738 5745 5737 5730 5722 5723 5720 5728 5728 5726 5722 5718 5722 5723 5723 5725 5733 5739 5739 5744 5762 5777 5778 5784 5792 5801 5803 5806
5705 5708 5709 5710 5708 5717 5719 5725 5727 5728 5710 5721 5730 5733 5735 5736 5726 5740 5740 5737 5727 5720 5716 5719 5729 5720 5716 5717 5718 5712 5732 5728 5724 5715 5715 5733 5717 5751 5769 5770 5778 5791 5795 5800 5802
5707 5708 5708 5707 5716 5717 5719 5722 5725 5724 5686 5718 5723 5743 5734 5727 5723 5717 5720 5731 5709 5714 5717 5716 5716 5712 5713 5719 5716 5720 5726 5723 5723 5715 5708 5724 5709 5748 5754 5763 5781 5789 5792 5799 5803
5706 5707 5706 5704 5707 5717 5718 5720 5721 5698 5675 5700 5714 5708 5712 5708 5701 5706 5701 5706 5695 5702 5709 5709 5721 5719 5721 5718 5719 5727 5720 5714 5706 5709 5696 5728 5715 5735 5749 5767 5783 5791 5798 5803 5804
5705 5706 5703 5706 5705 5713 5714 5714 5691 5677 5687 5674 5679 5686 5688 5680 5678 5675 5663 5656 5652 5674 5667 5685 5703 5709 5703 5705 5718 5708 5699 5686 5689 5697 5702 5733 5709 5729 5755 5772 5777 5788 5796 5797 5799
5702 5703 5701 5702 5705 5709 5712 5698 5670 5652 5653 5663 5666 5673 5664 5663 5656 5646 5644 5637 5636 5637 5646 5648 5681 5677 5675 5676 5679 5688 5691 5686 5667 5680 5702 5705 5701 5736 5756 5771 5777 5778 5785 5786 5789
5696 5698 5698 5700 5703 5706 5699 5658 5636 5635 5639 5644 5656 5656 5648 5649 5652 5635 5618 5615 5612 5616 5620 5624 5652 5660 5665 5665 5669 5680 5678 5680 5676 5693 5677 5703 5723 5736 5748 5754 5762 5757 5762 5766 5777
5693 5691 5688 5692 5697 5698 5675 5633 5631 5630 5634 5638 5636 5633 5630 5628 5635 5626 5606 5597 5597 5600 5604 5596 5607 5633 5644 5661 5662 5647 5656 5662 5674 5653 5660 5692 5693 5706 5711 5705 5715 5722 5727 5738 5750
5687 5684 5682 5686 5690 5676 5645 5629 5625 5626 5629 5626 5620 5617 5610 5608 5613 5601 5591 5583 5587 5588 5590 5584 5584 5614 5629 5629 5614 5629 5627 5621 5626 5641 5645 5661 5686 5673 5672 5679 5688 5700 5709 5720 5734
5673 5668 5672 5680 5659 5634 5626 5622 5619 5614 5618 5614 5610 5605 5600 5597 5597 5589 5583 5580 5576 5575 5574 5571 5563 5577 5589 5598 5604 5601 5589 5588 5592 5614 5605 5612 5647 5666 5667 5666 5670 5681 5697 5705 5714
5657 5647 5660 5666 5636 5620 5615 5609 5605 5605 5598 5600 5594 5593 5588 5583 5580 5574 5569 5567 5564 5561 5557 5557 5551 5565 5577 5578 5579 5568 5567 5566 5563 5568 5585 5593 5652 5660 5661 5658 5654 5660 5670 5682 5691
5644 5637 5634 5633 5613 5617 5608 5597 5592 5588 5582 5582 5578 5580 5574 5569 5564 5559 5555 5551 5547 5544 5541 5538 5534 5533 5528 5524 5529 5534 5543 5546 5538 5541 5567 5600 5605 5619 5625 5622 5642 5641 5648 5660 5675
5629 5602 5592 5599 5597 5599 5597 5586 5582 5575 5569 5564 5561 5559 5558 5556 5550 5545 5537 5532 5529 5521 5517 5515 5514 5509 5513 5512 5508 5502 5512 5518 5521 5524 5522 5574 5558 5577 5571 5586 5606 5617 5626 5637 5655
5620 5606 5587 5580 5581 5585 5578 5565 5565 5557 5555 5545 5543 5538 5539 5537 5529 5524 5513 5508 5504 5503 5495 5485 5496 5488 5494 5498 5495 5493 5493 5491 5490 5494 5506 5527 5544 5549 5549 5553 5572 5591 5601 5612 5627
5595 5591 5596 5565 5569 5573 5558 5552 5546 5542 5531 5529 5524 5521 5518 5514 5506 5499 5492 5486 5482 5478 5480 5478 5475 5474 5486 5481 5483 5488 5473 5472 5467 5467 5465 5471 5515 5507 5517 5519 5534 5552 5576 5588 5602